• En España
  • Lista de países
  • Para 7 días
  • Temperatura del agua
  • Mapa Satelital
  • El tiempo en el mapa
  • Informadores
  • user-avatar
    Iniciar sesión

    Tiempo cada hora Rechytsa

    Hoy, 14 Agosto, Martes

    Tiempo Temperatura Precipitaciones Viento Presión Humedad
    00:00 +20°C° 0,2 mm 2 mps 748 mmHg 75%
    01:00 +19°C° 0,2 mm 2 mps 748 mmHg 79%
    02:00 +18°C° 0 mm 2 mps 748 mmHg 89%
    03:00 +19°C° 0 mm 1 mps 748 mmHg 90%
    04:00 +19°C° 0 mm 1 mps 748 mmHg 91%
    05:00 +18°C° 0 mm 1 mps 748 mmHg 92%
    06:00 +20°C° 0 mm 1 mps 748 mmHg 85%
    07:00 +22°C° 0 mm 1 mps 749 mmHg 79%
    08:00 +24°C° 0 mm 1 mps 749 mmHg 73%
    09:00 +26°C° 0 mm 1 mps 749 mmHg 65%
    10:00 +28°C° 0 mm 1 mps 749 mmHg 58%
    11:00 +30°C° 0 mm 1 mps 749 mmHg 51%
    12:00 +30°C° 0 mm 1 mps 749 mmHg 49%
    13:00 +31°C° 0 mm 2 mps 749 mmHg 47%
    14:00 +31°C° 0 mm 2 mps 748 mmHg 45%
    15:00 +31°C° 0 mm 2 mps 748 mmHg 47%
    16:00 +31°C° 0 mm 2 mps 748 mmHg 49%
    17:00 +31°C° 0 mm 2 mps 748 mmHg 51%
    18:00 +29°C° 0 mm 2 mps 748 mmHg 55%
    19:00 +27°C° 0 mm 2 mps 748 mmHg 59%
    20:00 +26°C° 0 mm 2 mps 748 mmHg 62%
    21:00 +25°C° 0,1 mm 2 mps 748 mmHg 64%
    22:00 +24°C° 0,1 mm 3 mps 748 mmHg 67%
    23:00 +22°C° 0,1 mm 3 mps 748 mmHg 69%

    Mañana, 15 Agosto, Miércoles

    Tiempo Temperatura Precipitaciones Viento Presión Humedad
    00:00 +22°C° 0 mm 3 mps 748 mmHg 69%
    01:00 +22°C° 0 mm 3 mps 748 mmHg 70%
    02:00 +21°C° 0 mm 3 mps 747 mmHg 70%
    03:00 +21°C° 0,1 mm 3 mps 747 mmHg 72%
    04:00 +20°C° 0,1 mm 3 mps 747 mmHg 73%
    05:00 +20°C° 0,1 mm 3 mps 747 mmHg 74%
    06:00 +21°C° 0 mm 3 mps 747 mmHg 70%
    07:00 +22°C° 0 mm 3 mps 747 mmHg 65%
    08:00 +25°C° 0 mm 3 mps 747 mmHg 61%
    09:00 +27°C° 0,1 mm 4 mps 748 mmHg 55%
    10:00 +29°C° 0,1 mm 4 mps 748 mmHg 50%
    11:00 +30°C° 0,1 mm 4 mps 748 mmHg 44%
    12:00 +32°C° 0,5 mm 4 mps 748 mmHg 44%
    13:00 +32°C° 0,5 mm 4 mps 747 mmHg 44%
    14:00 +33°C° 0,5 mm 4 mps 747 mmHg 45%
    15:00 +30°C° 0,1 mm 4 mps 747 mmHg 52%
    16:00 +29°C° 0,1 mm 4 mps 748 mmHg 59%
    17:00 +27°C° 0,1 mm 3 mps 748 mmHg 66%
    18:00 +26°C° 0 mm 3 mps 748 mmHg 71%
    19:00 +24°C° 0 mm 2 mps 748 mmHg 76%
    20:00 +23°C° 0 mm 1 mps 748 mmHg 81%
    21:00 +23°C° 0 mm 1 mps 749 mmHg 81%
    22:00 +22°C° 0 mm 1 mps 749 mmHg 82%
    23:00 +22°C° 0 mm 1 mps 749 mmHg 82%

    Pasado mañana, 16 Agosto, Jueves

    Tiempo Temperatura Precipitaciones Viento Presión Humedad
    00:00 +21°C° 0 mm 1 mps 749 mmHg 83%
    01:00 +21°C° 0 mm 1 mps 749 mmHg 84%
    02:00 +21°C° 0 mm 1 mps 749 mmHg 85%
    03:00 +20°C° 0 mm 1 mps 750 mmHg 86%
    04:00 +20°C° 0 mm 1 mps 750 mmHg 86%
    05:00 +20°C° 0 mm 1 mps 750 mmHg 87%
    06:00 +21°C° 0,2 mm 1 mps 750 mmHg 83%
    07:00 +22°C° 0,2 mm 1 mps 750 mmHg 79%
    08:00 +23°C° 0,2 mm 1 mps 751 mmHg 76%
    09:00 +24°C° 0,2 mm 1 mps 751 mmHg 72%
    10:00 +25°C° 0,2 mm 1 mps 751 mmHg 69%
    11:00 +26°C° 0,2 mm 1 mps 751 mmHg 65%
    12:00 +26°C° 0,2 mm 1 mps 751 mmHg 62%
    13:00 +27°C° 0,2 mm 1 mps 751 mmHg 59%
    14:00 +28°C° 0,2 mm 2 mps 751 mmHg 56%
    15:00 +27°C° 0,9 mm 2 mps 750 mmHg 62%
    16:00 +26°C° 0,9 mm 2 mps 750 mmHg 67%
    17:00 +26°C° 0,9 mm 2 mps 750 mmHg 72%
    18:00 +24°C° 0,2 mm 2 mps 751 mmHg 78%
    19:00 +23°C° 0,2 mm 2 mps 751 mmHg 84%
    20:00 +21°C° 0,2 mm 1 mps 751 mmHg 89%
    21:00 +20°C° 0 mm 2 mps 751 mmHg 91%
    22:00 +19°C° 0 mm 2 mps 751 mmHg 92%
    23:00 +19°C° 0 mm 2 mps 751 mmHg 94%

    17 Agosto, Viernes

    Tiempo Temperatura Precipitaciones Viento Presión Humedad
    00:00 +18°C° 0 mm 2 mps 751 mmHg 94%
    01:00 +18°C° 0 mm 2 mps 751 mmHg 95%
    02:00 +18°C° 0 mm 2 mps 752 mmHg 96%
    03:00 +18°C° 0 mm 2 mps 752 mmHg 96%
    04:00 +17°C° 0 mm 2 mps 752 mmHg 97%
    05:00 +17°C° 0 mm 2 mps 752 mmHg 97%
    06:00 +18°C° 0 mm 2 mps 752 mmHg 94%
    07:00 +20°C° 0 mm 2 mps 752 mmHg 90%
    08:00 +21°C° 0 mm 2 mps 752 mmHg 87%
    09:00 +23°C° 0,2 mm 2 mps 752 mmHg 81%
    10:00 +25°C° 0,2 mm 2 mps 752 mmHg 74%
    11:00 +26°C° 0,2 mm 2 mps 752 mmHg 68%
    12:00 +26°C° 1 mm 2 mps 752 mmHg 68%
    13:00 +26°C° 1 mm 2 mps 752 mmHg 68%
    14:00 +26°C° 1 mm 2 mps 751 mmHg 68%
    15:00 +26°C° 0,7 mm 2 mps 751 mmHg 70%
    16:00 +26°C° 0,7 mm 2 mps 751 mmHg 72%
    17:00 +26°C° 0,7 mm 1 mps 751 mmHg 74%
    18:00 +24°C° 0,4 mm 2 mps 751 mmHg 79%
    19:00 +23°C° 0,4 mm 2 mps 751 mmHg 83%
    20:00 +21°C° 0,4 mm 2 mps 751 mmHg 88%
    21:00 +20°C° 0 mm 2 mps 751 mmHg 89%
    22:00 +20°C° 0 mm 2 mps 751 mmHg 91%
    23:00 +19°C° 0 mm 2 mps 751 mmHg 93%

    18 Agosto, Sábado

    Tiempo Temperatura Precipitaciones Viento Presión Humedad
    00:00 +20°C° 0 mm 1 mps 751 mmHg 93%
    01:00 +20°C° 0 mm 1 mps 751 mmHg 94%
    02:00 +20°C° 0 mm 1 mps 752 mmHg 95%
    03:00 +19°C° 0,2 mm 1 mps 752 mmHg 95%
    04:00 +19°C° 0,2 mm 1 mps 752 mmHg 96%
    05:00 +19°C° 0,2 mm 1 mps 752 mmHg 96%
    06:00 +20°C° 0,1 mm 1 mps 752 mmHg 92%
    07:00 +21°C° 0,1 mm 1 mps 752 mmHg 88%
    08:00 +23°C° 0,1 mm 1 mps 752 mmHg 83%
    09:00 +24°C° 0,1 mm 1 mps 752 mmHg 76%
    10:00 +26°C° 0,1 mm 1 mps 752 mmHg 68%
    11:00 +28°C° 0,1 mm 2 mps 752 mmHg 61%
    12:00 +28°C° 0,5 mm 2 mps 752 mmHg 59%
    13:00 +29°C° 0,5 mm 2 mps 751 mmHg 57%
    14:00 +29°C° 0,5 mm 2 mps 751 mmHg 55%
    15:00 +29°C° 0,9 mm 2 mps 751 mmHg 59%
    16:00 +28°C° 0,9 mm 2 mps 751 mmHg 63%
    17:00 +27°C° 0,9 mm 2 mps 751 mmHg 67%
    18:00 +26°C° 0,5 mm 1 mps 751 mmHg 71%
    19:00 +24°C° 0,5 mm 1 mps 751 mmHg 76%
    20:00 +23°C° 0,5 mm 1 mps 751 mmHg 81%
    21:00 +22°C° 0,5 mm 1 mps 751 mmHg 82%
    22:00 +22°C° 0,5 mm 1 mps 751 mmHg 84%
    23:00 +21°C° 0,5 mm 1 mps 751 mmHg 86%

    19 Agosto, Domingo

    Tiempo Temperatura Precipitaciones Viento Presión Humedad
    00:00 +21°C° 0 mm 1 mps 751 mmHg 87%
    01:00 +21°C° 0 mm 1 mps 751 mmHg 87%
    02:00 +21°C° 0 mm 1 mps 751 mmHg 88%
    03:00 +20°C° 0 mm 1 mps 751 mmHg 89%
    04:00 +20°C° 0 mm 1 mps 751 mmHg 90%
    05:00 +20°C° 0 mm 1 mps 751 mmHg 90%
    06:00 +21°C° 0 mm 1 mps 751 mmHg 86%
    07:00 +23°C° 0 mm 1 mps 752 mmHg 82%
    08:00 +24°C° 0 mm 1 mps 752 mmHg 78%
    09:00 +25°C° 0,7 mm 1 mps 751 mmHg 72%
    10:00 +27°C° 0,7 mm 1 mps 751 mmHg 65%
    11:00 +28°C° 0,7 mm 2 mps 751 mmHg 59%
    12:00 +28°C° 0,2 mm 2 mps 751 mmHg 56%
    13:00 +29°C° 0,2 mm 2 mps 751 mmHg 53%
    14:00 +29°C° 0,2 mm 2 mps 751 mmHg 50%
    15:00 +29°C° 0 mm 1 mps 751 mmHg 52%
    16:00 +28°C° 0 mm 1 mps 751 mmHg 55%
    17:00 +28°C° 0 mm 1 mps 750 mmHg 58%
    18:00 +26°C° 0 mm 1 mps 751 mmHg 63%
    19:00 +25°C° 0 mm 1 mps 751 mmHg 69%
    20:00 +23°C° 0 mm 1 mps 751 mmHg 75%
    21:00 +22°C° 0 mm 1 mps 751 mmHg 79%
    22:00 +20°C° 0 mm 2 mps 751 mmHg 82%
    23:00 +19°C° 0 mm 2 mps 751 mmHg 86%
    Mostrar más